Location: Bremen
(53.0793°N, 8.8017°E)
Time: 00:10:45
(UTC+01:00)

Explorer 7 - Pass Details

Date: 03 December 2021
Orbit: 483 x 674 km, 50.3° (Epoch: 17 January)

Event Time Altitude Azimuth Distance (km) Brightness Sun altitude
Rises 07:49:04 0° 242° (WSW) 2,769 10.1 -4.5°
Reaches altitude 10° 07:51:27 10° 236° (SW) 1,838 9.3 -4.2°
Maximum altitude 07:55:25 44° 164° (SSE) 745 8.0 -3.7°
Drops below altitude 10° 07:59:11 10° 91° (E) 1,741 10.4 -3.2°
Sets 08:01:23 0° 85° (E) 2,604 11.2 -2.9°
